ROMMA est une association bénévole à but non lucratif. Votre soutien est indispensable : ADHERER à ROMMA ou FAIRE un DON

Crempigny - (74, Haute-Savoie)

Albanais-Montagne des Princes (500 m)   Longitude: 05° 54' 5" E   Latitude: 45° 57' 0" N Station partenaire n°10
 

Détail journalier du     <<     >>

Température Precipitation Humidité Pression Vent Dir Rafale Dir. rafale Ensol. 20 cm au dessus du sol
Heure (°C) (mm) (%) (hPa) (km/h) (km/h) (min) (°C)
01:00 3.609610111N6ENE02.8
02:00 3.409710111ENE5ENE02.8
03:00 2.7097101203ENE02.8
04:00 3.4098101203ENE03.9
05:00 3.809810121ENE5ENE03.9
06:00 2.809710131ENE5ENE02.8
07:00 2.809810132SE5SE02.8
08:00 2.909810141SE3SE02.8
09:00 3.409910141SE5SE05.0
10:00 3.709910151SE5SE06.1
11:00 5.109710142SE5SE2011.1
12:00 7.508810133SE11SSO6016.7
13:00 7.908110133SO10NO3011.1
14:00 8.208210124NO13ONO510.0
15:00 8.108010122SSO8SSO08.3
16:00 7.707710124SSO15OSO07.8
17:00 7.108310113ESE13OSO55.6
18:00 5.108410115NO8NO0
19:00 4.608710105NO8NO0
20:00 3.909210106NO10NO02.8
21:00 3.209310104NO8NO02.2
22:00 2.909510102NO5NO02.2
23:00 2.309610102NO5NO01.1
minuit 1.809610092NO5NO00.6

Graphique du 09-11-2019

 

Serveur OMMA